Key West, FL

11:27 AM EST on January 22, 2018 (GMT -0500)
Key West International

Weather History for KEYW - January, 2012

Change the Weather History Date:

Wednesday, January 18, 2012

  Actual Average Record
Temperature  
Mean Temperature 72 °F 69 °F  
Max Temperature 79 °F 74 °F 85 °F (1960)
Min Temperature 65 °F 64 °F 48 °F (1981)
Degree Days  
Heating Degree Days 0 1  
Month to date heating degree days 23 18  
Since 1 July heating degree days 23 36  
Cooling Degree Days 7 5  
Month to date cooling degree days 84 92  
Year to date cooling degree days 84 92  
Growing Degree Days 22 (Base 50)    
Moisture  
Dew Point 64 °F    
Average Humidity 77    
Maximum Humidity 93    
Minimum Humidity 60    
Precipitation  
Precipitation 0.00 in 0.07 in 2.04 in (1899)
Month to date precipitation 0.68 1.17  
Year to date precipitation 0.68 1.17  
Snow  
Snow 0.00 in - - ()
Month to date snowfall 0.0  
Since 1 July snowfall 0.0  
Snow Depth 0.00 in    
Sea Level Pressure  
Sea Level Pressure 30.11 in    
Wind  
Wind Speed 3 mph (NE)    
Max Wind Speed 8 mph    
Max Gust Speed 9 mph    
Visibility 10 miles    
Events      
T = Trace of Precipitation, MM = Missing Value Source: NWS Daily Summary

Daily Weather History Graph

Daily Weather History Graph

Search for Another Location

Airport or City:

Trip Planner

Search our weather history database for the weather conditions in past years. The results will help you decide how hot, cold, wet, or windy it might be!

Date:

Astronomy

Jan. 18, 2012 Rise Set
Actual Time 7:12 AM EST 6:02 PM EST
Civil Twilight 6:48 AM EST 6:26 PM EST
Nautical Twilight 6:20 AM EST 6:54 PM EST
Astronomical Twilight 5:53 AM EST 7:21 PM EST
Moon 2:38 AM EST (1/18) 1:43 PM EST (1/18)
Length of Visible Light 11h 37m
Length of Day
10h 49m
Waning Crescent, 25% of the Moon is Illuminated
Jan 18
Waning Crescent
Jan 23
New
Jan 30
First Quarter
Feb 7
Full
Feb 14
Last Quarter

Hourly Weather History & Observations

Time (EST) Temp. Dew Point Humidity Pressure Visibility Wind Dir Wind Speed Gust Speed Precip Events Conditions
12:53 AM 66.9 °F 64.0 °F 90% 30.15 in 10.0 mi ENE 3.5 mph - N/A   Clear
1:53 AM 66.0 °F 63.0 °F 90% 30.14 in 10.0 mi NE 3.5 mph - N/A   Clear
2:53 AM 66.0 °F 63.0 °F 90% 30.11 in 10.0 mi NE 3.5 mph - N/A   Clear
3:53 AM 66.0 °F 63.0 °F 90% 30.09 in 10.0 mi Calm Calm - N/A   Clear
4:53 AM 66.0 °F 63.0 °F 90% 30.09 in 10.0 mi NNE 4.6 mph - N/A   Clear
6:53 AM 66.0 °F 64.0 °F 93% - 10.0 mi NE 5.8 mph - N/A   Clear
7:53 AM 66.9 °F 64.9 °F 93% - 10.0 mi Calm Calm - N/A   Partly Cloudy
8:53 AM 73.0 °F 66.0 °F 79% 30.16 in 10.0 mi NE 3.5 mph - N/A   Mostly Cloudy
9:53 AM 75.9 °F 64.0 °F 67% 30.17 in 10.0 mi Calm Calm - N/A   Partly Cloudy
10:53 AM 75.9 °F 64.0 °F 67% 30.16 in 10.0 mi Variable 3.5 mph - N/A   Clear
11:53 AM 75.9 °F 63.0 °F 64% 30.14 in 10.0 mi ESE 4.6 mph - N/A   Clear
12:53 PM 75.9 °F 62.1 °F 62% 30.12 in 10.0 mi Calm Calm - N/A   Mostly Cloudy
1:53 PM 77.0 °F 64.0 °F 64% 30.10 in 10.0 mi North 3.5 mph - N/A   Mostly Cloudy
2:53 PM 77.0 °F 64.0 °F 64% 30.08 in 10.0 mi South 5.8 mph - N/A   Clear
3:53 PM 77.0 °F 63.0 °F 62% 30.09 in 10.0 mi North 5.8 mph - N/A   Scattered Clouds
4:53 PM 77.0 °F 63.0 °F 62% 30.09 in 10.0 mi Calm Calm - N/A   Clear
5:53 PM 75.0 °F 64.0 °F 69% 30.09 in 10.0 mi North 4.6 mph - N/A   Clear
6:53 PM 71.1 °F 64.0 °F 78% 30.09 in 10.0 mi NNE 3.5 mph - N/A   Clear
7:53 PM 70.0 °F 64.0 °F 81% 30.10 in 10.0 mi Calm Calm - N/A   Partly Cloudy
8:53 PM 70.0 °F 64.9 °F 84% 30.10 in 10.0 mi Calm Calm - N/A   Clear
9:53 PM 69.1 °F 64.9 °F 87% 30.09 in 10.0 mi Calm Calm - N/A   Clear
10:53 PM 71.6 °F 66.2 °F 83% 30.08 in 10.0 mi SSE 4.6 mph - N/A   Clear
11:53 PM 69.1 °F 64.9 °F 87% 30.08 in 10.0 mi Calm Calm - N/A   Clear